Location: Tuttlingen
(47.9853°N, 8.8165°E)
Time: 08:49:58
(UTC+02:00)

ISS - Visible Passes

Search period start: 28 May 2017 00:00
Search period end: 07 June 2017 00:00
Orbit: 402 x 408 km, 51.6° (Epoch: 28 May)

Date Brightness Start Highest point End Pass type
(mag) Time Alt. Az. Time Alt. Az. Time Alt. Az.
28 May -2.5 00:06:18 10° WNW 00:09:28 42° N 00:12:38 10° ENE visible
28 May -3.5 01:43:00 10° WNW 01:46:16 65° NNE 01:47:25 36° E visible
28 May -1.4 03:19:41 10° W 03:19:57 12° W 03:19:57 12° W visible
28 May -2.7 23:14:07 10° W 23:17:19 45° N 23:20:31 10° ENE visible
29 May -3.0 00:50:56 10° WNW 00:54:10 51° NNE 00:56:01 22° E visible
29 May -1.9 02:27:30 10° WNW 02:28:37 19° W 02:28:37 19° W visible
29 May -3.0 22:21:56 10° W 22:25:11 54° NNW 22:28:26 10° ENE visible
29 May -2.6 23:58:50 10° WNW 00:02:02 44° N 00:05:09 10° E visible
30 May -3.1 01:35:23 10° WNW 01:37:45 43° WNW 01:37:45 43° WNW visible
30 May -2.5 23:06:40 10° WNW 23:09:50 41° N 23:13:00 10° ENE visible
31 May -3.7 00:43:19 10° WNW 00:46:37 74° NNE 00:47:05 60° E visible
31 May -2.6 22:14:28 10° W 22:17:39 43° N 22:20:50 10° ENE visible
31 May -3.2 23:51:14 10° WNW 23:54:29 55° NNE 23:56:29 21° E visible
01 Jun -1.9 01:27:49 10° WNW 01:29:07 20° W 01:29:07 20° W visible
01 Jun -2.8 22:59:06 10° WNW 23:02:18 46° N 23:05:30 10° E visible
02 Jun -3.7 00:35:39 10° WNW 00:38:36 59° WSW 00:38:36 59° WSW visible
02 Jun -2.6 22:06:56 10° WNW 22:10:06 42° N 22:13:16 10° ENE visible
02 Jun -3.9 23:43:31 10° WNW 23:46:50 84° NNE 23:48:06 35° ESE visible
03 Jun -1.1 01:20:29 10° W 01:20:44 11° W 01:20:44 11° W visible
03 Jun -3.4 22:51:24 10° WNW 22:54:41 61° NNE 22:57:39 12° E visible
04 Jun -2.5 00:28:03 10° WNW 00:30:17 29° WSW 00:30:17 29° WSW visible
04 Jun -2.9 21:59:16 10° WNW 22:02:29 48° N 22:05:42 10° E visible
04 Jun -3.7 23:35:48 10° WNW 23:39:03 54° SSW 23:39:51 41° SSE visible
05 Jun -3.9 22:43:37 10° WNW 22:46:57 85° SSW 22:49:26 16° ESE visible
06 Jun -1.6 00:20:48 10° W 00:22:05 15° WSW 00:22:05 15° WSW visible
06 Jun -2.6 23:28:12 10° W 23:31:05 28° SW 23:31:42 26° SSW visible
